Погода в Андриановичах

Россия / Свердловская область     59°55′44″N   60°36′09″E
темп.,
°C
ветер,
м/с
пор.,
м/с
влажн.,
%
обл.,
%
осадки,
мм/ч
давл.,
гПа
погр.,
м
12 мая, ср
ср1223:00+11ссз2358100 0.0 102849
02:00+9ссз1158100 0.0 102813
05:00+9зюз1266100 0.0 102947
08:00+13зюз1252100 0.0 1029152
11:00+16зюз2345100 0.0 1028454
14:00+22з243971 0.0 10261518
17:00+23зсз68396 0.0 10251627
20:00+19з495059 0.0 1025595
13 мая, чт
чт1323:00+15з31065100 0.0 1025203
02:00+14з37716 0.0 1025120
05:00+13з397356 0.0 1025161
08:00+20зсз49525 0.0 1025506
11:00+24сз583651 0.0 10252167
14:00+26ссз57328 0.0 10252472
17:00+26ссз353116 0.0 10252544
20:00+22ссв11466 0.0 102511
14 мая, пт
пт1423:00+17ю11595 0.0 102511
02:00+15юз11665 0.0 102511
05:00+15зюз266877 0.0 102596
08:00+21зюз38485 0.0 1024406
11:00+26з473279 0.0 10222375
14:00+27з6828100 0.0 10213234
17:00+27з593143 0.0 10202926
20:00+22з394662 0.0 1019296
15 мая, сб
сб1523:00+17юз25722 0.1 1020100
02:00+16юз3106641 0.0 1019195
05:00+16юз3966100 0.0 1018166
08:00+20зюз41153100 0.0 1017426
11:00+23з4848100 0.0 10171252
14:00+27з6931100 0.0 10152871
17:00+27з51132100 0.0 10142903
20:00+18з3968100 1.3 1014282
16 мая, вс
вс1623:00+16зсз237920 2.0 101553
02:00+14з228462 0.0 101621
05:00+14з118396 0.0 101612
08:00+19юз236183 0.0 1016317
11:00+25ююз454668 0.0 10151215
14:00+28зюз592778 0.0 10142166
17:00+29зюз692423 0.0 10132348
20:00+25юз410365 0.0 1012512